This is the latest recevied weather packets stored in our database for station/object VA6GSB-13. If no packets are shown the sender has not sent any weather packets the latest 10 day(s).
| Time | Temp. | Humidity | Pressure | Rain* | Wind** | Luminosity | Snow |
|---|---|---|---|---|---|---|---|
| 1787625563 | 18.33° C | 66% | 1020.3 hPa | 0 mm | - | 5 W/m² | - |
| 1787625264 | 18.89° C | 63% | 1020.2 hPa | 0 mm | - | 7 W/m² | - |
| 1787624964 | 18.89° C | 63% | 1020.1 hPa | 0 mm | - | 10 W/m² | - |
| 1787624664 | 19.44° C | 64% | 1020.1 hPa | 0 mm | - | 13 W/m² | - |
| 1787624439 | 19.44° C | 63% | 1020 hPa | 0 mm | - | 16 W/m² | - |
| 1787624141 | 20° C | 62% | 1020 hPa | 0 mm | - | 21 W/m² | - |
| 1787624063 | 20° C | 62% | 1020.1 hPa | 0 mm | - | 21 W/m² | - |
| 1787623840 | 20° C | 62% | 1020 hPa | 0 mm | - | 26 W/m² | - |
| 1787623764 | 20° C | 61% | 1020 hPa | 0 mm | - | 27 W/m² | - |
| 1787623463 | 20.56° C | 58% | 1020 hPa | 0 mm | - | 33 W/m² | - |
| 1787623164 | 20.56° C | 57% | 1020 hPa | 0 mm | - | 39 W/m² | - |
| 1787622863 | 20.56° C | 57% | 1020 hPa | 0 mm | - | 45 W/m² | - |
| 1787622563 | 21.11° C | 56% | 1020 hPa | 0 mm | - | 52 W/m² | - |
| 1787622263 | 21.11° C | 56% | 1020 hPa | 0 mm | - | 59 W/m² | - |
| 1787622040 | 21.67° C | 56% | 1020 hPa | 0 mm | - | 66 W/m² | - |
| 1787621740 | 21.67° C | 55% | 1020 hPa | 0 mm | - | 76 W/m² | - |
| 1787621440 | 21.67° C | 54% | 1020 hPa | 0 mm | - | 86 W/m² | - |
| 1787621141 | 21.67° C | 52% | 1020 hPa | 0 mm | - | 98 W/m² | - |
| 1787620840 | 21.67° C | 51% | 1020 hPa | 0 mm | - | 110 W/m² | - |
| 1787620540 | 21.67° C | 49% | 1020 hPa | 0 mm | - | 122 W/m² | - |
| 1787620463 | 22.22° C | 49% | 1019.8 hPa | 0 mm | - | 125 W/m² | - |
| 1787620165 | 22.22° C | 48% | 1019.8 hPa | 0 mm | - | 136 W/m² | - |
| 1787619941 | 22.22° C | 49% | 1020 hPa | 0 mm | - | 145 W/m² | - |
| 1787619639 | 22.22° C | 48% | 1020 hPa | 0 mm | - | 155 W/m² | - |
| 1787619339 | 22.22° C | 47% | 1020 hPa | 0 mm | - | 167 W/m² | - |
* Rain latest hour (hover to see other rain measurements)
** Current wind speed in m/s (hover to see current wind gust speed)